Weather in Daşköpri

Turkmenistan     36°16′19″N   62°38′57″E
temp.,
°C
wind,
m/s
gust,
m/s
humid.,
%
clouds,
%
prec.,
mm/h
press.,
hPa
HPBL,
m
14 april, wed
wed1423:00+17ne4733100 0.0 1017121
02:00+16ne2236100 0.1 101625
05:00+14ne22364 0.1 101513
08:00+17e1231100 0.0 1017113
11:00+24nne3423100 0.0 10151322
14:00+26nne4321100 0.0 10142017
17:00+26n652099 0.0 10121803
20:00+19nne45284 0.0 101458
15 april, thu
thu1523:00+17ne342620 0.0 101452
02:00+14e122717 0.0 101411
05:00+13e222521 0.0 101411
08:00+17ese222472 0.0 101697
11:00+24e23196 0.0 10151226
14:00+27nne4417100 0.0 10122318
17:00+27ne65166 0.0 10112313
20:00+19ne472568 0.0 1013104
16 april, fri
fri1623:00+17ne4624100 0.0 101485
02:00+16ne3424100 0.0 101352
05:00+14ene2228100 0.0 101418
08:00+17e1328100 0.0 1015130
11:00+23ne2318100 0.0 10151561
14:00+26ne441453 0.0 10132135
17:00+26ne65144 0.0 10122103
20:00+19ene45250 0.0 101362
17 april, sat
sat1723:00+17ne33241 0.0 101420
02:00+15ne22263 0.0 101311
05:00+13n11290 0.0 101411
08:00+19sw112479 0.0 101663
11:00+24w111965 0.0 1016991
14:00+27nw43158 0.0 10143086
17:00+27n53155 0.0 10143335
20:00+20ne511265 0.0 1017182
18 april, sun
sun1823:00+17nne33285 0.0 101926
02:00+15ese2232100 0.0 101811
05:00+14ne11365 0.0 101911
08:00+19ese01275 0.0 102079
11:00+24n0122100 0.0 10191601
14:00+26nnw32202 0.0 10172594
17:00+27nnw33185 0.0 10152586
20:00+21nne3326100 0.0 101626